Location: Costa Mesa
(33.6411°N, 117.9187°W)
Time: 03:41:58
(UTC+00:00)

NOSS 3-2 (C) - Pass Details

Date: 10 September 2024
Orbit: 699 x 1512 km, 63.4° (Epoch: 06 October)

Event Time Altitude Azimuth Distance (km) Brightness Sun altitude
Exits shadow 12:18:02 10° 200° (SSW) 2,198 5.0 -15.9°
Reaches altitude 10° 12:18:05 10° 199° (SSW) 2,176 5.0 -15.9°
Maximum altitude 12:22:55 68° 117° (ESE) 814 3.3 -14.9°
Drops below altitude 10° 12:28:26 10° 35° (NE) 2,471 6.4 -13.8°
Sets 12:31:08 0° 33° (NNE) 3,523 7.2 -13.3°
